MDT,Max TemperatureF,Mean TemperatureF,Min TemperatureF,Max Dew PointF,MeanDew PointF,Min DewpointF,Max Humidity, Mean Humidity, Min Humidity, Max Sea Level PressureIn, Mean Sea Level PressureIn, Min Sea Level PressureIn, Max VisibilityMiles, Mean VisibilityMiles, Min VisibilityMiles, Max Wind SpeedMPH, Mean Wind SpeedMPH, Max Gust SpeedMPH,PrecipitationIn, CloudCover, Events, WindDirDegrees
2013-10-1,67,50,33,34,28,21,82,50,18,29.96,29.88,29.81,,,,26,11,33,0.00,,,277
2013-10-2,61,50,38,34,29,25,76,51,26,30.09,30.04,29.96,,,,16,7,22,0.00,,,305
2013-10-3,45,41,36,38,34,28,82,70,58,30.40,30.19,30.04,,,,20,12,24,0.02,,,18
2013-10-4,47,34,21,30,25,20,88,65,41,30.51,30.46,30.41,,,,17,8,22,0.00,,,354
2013-10-5,63,40,16,31,23,13,92,56,20,30.43,30.27,30.15,,,,20,5,25,0.00,,,281
2013-10-6,74,53,32,33,30,28,82,51,20,30.14,30.07,29.96,,,,18,8,24,0.00,,,287
2013-10-7,80,54,27,38,29,21,85,49,12,29.95,29.76,29.63,,,,20,5,23,0.00,,,239
2013-10-8,65,49,32,31,27,24,82,52,22,29.97,29.78,29.64,,,,21,7,28,0.00,,,291
2013-10-9,62,43,24,38,31,23,85,57,29,30.14,30.04,29.90,,,,14,6,18,0.00,,,52
2013-10-10,64,51,37,37,35,32,79,59,39,29.88,29.75,29.66,,,,21,7,25,0.01,,,321
2013-10-11,54,42,30,41,33,22,92,61,29,30.04,29.88,29.76,,,,31,14,40,0.05,,,308
2013-10-12,55,41,27,33,26,22,92,62,32,30.26,30.16,30.05,,,,10,4,13,0.00,,,322
2013-10-13,58,43,28,38,28,23,86,57,28,30.31,30.26,30.20,,,,20,8,26,0.07,,,92
2013-10-14,50,42,34,38,30,22,92,63,34,30.40,30.33,30.24,,,,23,11,29,0.05,,,10
2013-10-15,55,40,25,31,26,23,92,61,30,30.42,30.29,30.10,,,,15,6,24,0.00,,,262
2013-10-16,54,39,23,37,30,22,100,69,38,30.19,30.09,30.02,,,,25,9,31,0.06,,,305
2013-10-17,48,36,24,36,31,23,100,63,26,30.26,30.20,30.15,,,,18,7,24,0.10,,,289
2013-10-18,54,43,32,35,32,26,92,64,35,30.21,30.09,29.94,,,,20,9,26,0.00,,,281
2013-10-19,63,49,34,33,32,29,89,60,31,29.93,29.84,29.78,,,,30,15,37,0.00,,,293
2013-10-20,48,42,35,37,35,32,85,70,54,30.09,30.03,29.87,,,,29,10,36,0.00,,,323
2013-10-21,59,48,37,39,37,35,85,65,44,30.08,30.00,29.95,,,,25,9,33,0.00,,,296
2013-10-22,66,53,39,40,37,35,89,62,34,30.15,30.08,30.03,,,,13,4,16,0.00,,,289
2013-10-23,51,46,41,39,37,30,83,71,58,30.32,30.23,30.07,,,,14,5,18,0.00,,,349
2013-10-24,56,44,31,37,35,31,92,70,47,30.34,30.25,30.12,,,,8,4,14,0.00,,,123
2013-10-25,64,46,27,40,31,25,96,62,27,30.31,30.15,30.04,,,,22,8,28,0.00,,,306
2013-10-26,68,45,21,32,25,19,96,59,22,30.33,30.16,29.93,,,,16,4,21,0.00,,,272
2013-10-27,49,36,23,31,26,20,81,64,46,30.35,30.04,29.86,,,,25,14,35,0.00,,,42
2013-10-28,30,27,24,24,22,18,92,83,74,30.48,30.42,30.34,,,,23,14,30,0.15,,,78
2013-10-29,34,29,24,29,26,23,92,85,78,30.33,30.16,30.00,,,,12,6,15,0.00,,,118
2013-10-30,48,33,18,31,26,16,100,73,46,29.98,29.85,29.77,,,,22,7,28,0.00,,,262
2013-10-31,56,41,26,39,32,25,92,68,44,29.84,29.76,29.68,,,,30,12,38,0.01,,,283